CW5763 Weather Reports


Display with metric or nautical units.
time (UTC)temp
F
wind
direction
speed
MPH
gust
MPH
rain 1hr
in
rain 24hr
in
rain mn
in
humidity
%
barometer
mb
20260906125006 72 126 9.0 16.0 0.00 0.00 0.00 72 1020.5
20260906124005 74 130 10.0 15.0 0.00 0.00 0.00 68 1020.6
20260906123005 75 126 9.0 15.0 0.00 0.00 0.00 68 1020.7
20260906122005 75 143 7.0 12.0 0.00 0.00 0.00 68 1020.8
20260906121005 75 134 7.0 12.0 0.00 0.00 0.00 67 1020.9
20260906120005 75 137 9.0 14.0 0.00 0.00 0.00 67 1020.9
20260906115005 76 128 10.0 14.0 0.00 0.00 0.00 67 1021.0
20260906114005 76 133 7.0 12.0 0.00 0.00 0.00 67 1021.1
20260906112004 74 135 6.0 12.0 0.00 0.00 0.00 69 1021.3
20260906111005 73 142 3.0 12.0 0.00 0.00 0.00 70 1021.5
20260906105005 72 134 8.0 15.0 0.00 0.00 0.00 74 1021.6
20260906104006 71 131 10.0 15.0 0.00 0.00 0.00 72 1021.7
20260906103004 71 127 9.0 16.0 0.00 0.00 0.00 73 1021.8
20260906102005 71 129 11.0 16.0 0.00 0.00 0.00 73 1021.9
20260906100004 70 128 10.0 18.0 0.00 0.00 0.00 75 1022.0
20260906095004 70 140 7.0 16.0 0.00 0.00 0.00 76 1022.0
20260906094004 69 129 9.0 16.0 0.00 0.00 0.00 77 1022.0
20260906093004 69 134 12.0 17.0 0.00 0.00 0.00 76 1021.9
20260906091004 69 136 9.0 18.0 0.00 0.00 0.00 76 1022.0
20260906090004 69 136 10.0 18.0 0.00 0.00 0.00 77 1021.9
20260906085004 68 134 8.0 16.0 0.00 0.00 0.00 79 1022.1
20260906084004 68 127 12.0 16.0 0.00 0.00 0.00 80 1022.2
20260906083005 67 137 12.0 18.0 0.00 0.00 0.00 79 1022.3
20260906082004 67 128 12.0 18.0 0.00 0.00 0.00 79 1022.1
20260906081004 66 131 12.0 20.0 0.00 0.00 0.00 78 1022.1
20260906080004 66 128 12.0 18.0 0.00 0.00 0.00 79 1022.1
20260906075004 65 132 9.0 17.0 0.00 0.00 0.00 80 1022.2
20260906074004 65 126 11.0 17.0 0.00 0.00 0.00 81 1022.2
20260906073004 64 129 9.0 15.0 0.00 0.00 0.00 84 1022.2
20260906072004 64 129 10.0 15.0 0.00 0.00 0.00 86 1022.2
20260906070004 63 134 7.0 17.0 0.00 0.00 0.00 86 1022.4
20260906065004 62 133 9.0 15.0 0.00 0.00 0.00 86 1022.5
20260906063004 61 126 7.0 12.0 0.00 0.00 0.00 86 1022.5
20260906062005 61 133 5.0 9.0 0.00 0.00 0.00 87 1022.8
20260906060004 60 136 5.0 10.0 0.00 0.00 0.00 88 1023.0
20260906055006 60 135 3.0 7.0 0.00 0.00 0.00 88 1023.2
20260906053006 59 137 3.0 8.0 0.00 0.00 0.00 89 1023.3
20260906052004 59 139 3.0 6.0 0.00 0.00 0.00 90 1023.2
20260906051004 58 138 2.0 6.0 0.00 0.00 0.00 90 1023.1
20260906050004 58 161 5.0 7.0 0.00 0.00 0.00 90 1023.2
20260906045004 58 134 3.0 5.0 0.00 0.00 0.00 90 1023.2
20260906044007 57 136 3.0 6.0 0.00 0.00 0.00 92 1023.4
20260906043006 57 142 2.0 6.0 0.00 0.00 0.00 93 1023.6
20260906042006 56 149 2.0 5.0 0.00 0.00 0.00 92 1023.6
20260906041006 56 143 2.0 6.0 0.00 0.00 0.00 91 1023.6
20260906040006 56 215 0.0 2.0 0.00 0.00 0.00 91 1023.6
20260906035006 56 215 0.0 0.0 0.00 0.00 0.00 91 1023.7
20260906033006 56 215 0.0 0.0 0.00 0.00 0.00 91 1023.9
20260906032007 56 215 0.0 0.0 0.00 0.00 0.00 91 1024.1
20260906030006 56 215 0.0 0.0 0.00 0.00 0.00 91 1024.4
20260906025006 56 215 0.0 0.0 0.00 0.00 0.00 91 1024.6
20260906024006 56 215 0.0 3.0 0.00 0.00 0.00 91 1024.5
20260906023005 56 215 0.0 2.0 0.00 0.00 0.00 91 1024.7
20260906022006 56 215 0.0 0.0 0.00 0.00 0.00 91 1024.6
20260906021006 56 215 0.0 0.0 0.00 0.00 0.00 90 1024.4
20260906015006 56 215 0.0 0.0 0.00 0.00 0.00 91 1024.8
20260906014006 56 215 0.0 0.0 0.00 0.00 0.00 91 1024.9
20260906013007 56 215 0.0 0.0 0.00 0.00 0.00 91 1024.9
20260906012006 56 215 0.0 0.0 0.00 0.00 0.00 91 1025.0
20260906011005 56 215 0.0 0.0 0.00 0.00 0.00 91 1025.0
20260906010006 56 215 0.0 0.0 0.00 0.00 0.00 91 1025.0
20260906005007 55 215 0.0 0.0 0.00 0.00 0.00 91 1025.1
20260906004006 55 215 0.0 0.0 0.00 0.00 0.00 91 1025.0
20260906003006 55 215 0.0 0.0 0.00 0.00 0.00 90 1025.3
20260906002007 55 215 0.0 1.0 0.00 0.00 0.00 90 1025.5
20260906001007 55 215 0.0 1.0 0.00 0.00 0.00 88 1025.8
20260906000006 55 215 1.0 2.0 0.00 0.00 0.00 88 1025.9
20260905235006 56 215 0.0 3.0 0.00 0.00 0.00 91 1025.9
20260905234006 55 215 1.0 3.0 0.00 0.00 0.00 91 1026.0
20260905232006 55 215 0.0 0.0 0.00 0.00 0.00 90 1025.9
20260905231006 55 215 0.0 2.0 0.00 0.00 0.00 89 1025.8
20260905230005 55 215 1.0 2.0 0.00 0.00 0.00 89 1025.6
20260905224006 55 215 1.0 2.0 0.00 0.00 0.00 88 1025.4
20260905223006 55 215 1.0 3.0 0.00 0.00 0.00 87 1025.4
20260905222005 55 215 1.0 3.0 0.00 0.00 0.00 86 1025.4
20260905221005 56 215 0.0 1.0 0.00 0.00 0.00 86 1025.4
20260905220005 56 215 0.0 1.0 0.00 0.00 0.00 85 1025.5
20260905215005 56 215 0.0 2.0 0.00 0.00 0.00 85 1025.6
20260905214005 57 215 0.0 2.0 0.00 0.00 0.00 86 1025.6
20260905213005 57 215 0.0 2.0 0.00 0.00 0.00 86 1025.6
20260905212006 57 215 1.0 2.0 0.00 0.00 0.00 85 1025.6
20260905211005 57 215 0.0 0.0 0.00 0.00 0.00 84 1025.5
20260905210005 57 215 0.0 0.0 0.00 0.00 0.00 84 1025.4
20260905205005 57 215 0.0 0.0 0.00 0.00 0.00 84 1025.6
20260905204005 57 215 0.0 1.0 0.00 0.00 0.00 84 1025.8
20260905203005 57 215 0.0 0.0 0.00 0.00 0.00 82 1026.0
20260905202006 57 215 0.0 1.0 0.00 0.00 0.00 82 1026.0
20260905201005 58 215 0.0 2.0 0.00 0.00 0.00 81 1025.9
20260905200005 58 215 0.0 2.0 0.00 0.00 0.00 80 1025.8
20260905195005 58 215 0.0 2.0 0.00 0.00 0.00 80 1025.7
20260905194005 59 215 0.0 1.0 0.00 0.00 0.00 78 1025.7
20260905193005 59 215 0.0 1.0 0.00 0.00 0.00 77 1025.5
20260905192005 60 215 0.0 1.0 0.00 0.00 0.00 76 1025.3
20260905185005 61 215 0.0 2.0 0.00 0.00 0.00 73 1025.2
20260905184006 62 215 0.0 1.0 0.00 0.00 0.00 72 1025.0
20260905183005 63 215 0.0 2.0 0.00 0.00 0.00 70 1025.1
20260905181005 64 210 1.0 7.0 0.00 0.00 0.00 67 1025.2
20260905175005 65 318 1.0 6.0 0.00 0.00 0.00 66 1025.3
20260905174005 65 236 2.0 7.0 0.00 0.00 0.00 65 1025.3
20260905173005 66 221 2.0 9.0 0.00 0.00 0.00 64 1025.3
20260905172005 67 292 2.0 9.0 0.00 0.00 0.00 63 1025.3
20260905170005 68 221 2.0 12.0 0.00 0.00 0.00 60 1025.2
20260905165005 69 226 3.0 9.0 0.00 0.00 0.00 60 1025.2
20260905164005 69 349 3.0 9.0 0.00 0.00 0.00 60 1025.1
20260905163006 70 260 3.0 7.0 0.00 0.00 0.00 58 1025.2
20260905162005 70 208 3.0 10.0 0.00 0.00 0.00 59 1025.1
20260905161005 70 246 3.0 8.0 0.00 0.00 0.00 59 1025.2
20260905160005 70 251 2.0 8.0 0.00 0.00 0.00 60 1025.2
20260905155005 70 224 2.0 9.0 0.00 0.00 0.00 60 1025.5
20260905154005 70 222 3.0 12.0 0.00 0.00 0.00 59 1025.5
20260905153005 70 245 3.0 12.0 0.00 0.00 0.00 59 1025.6
20260905152005 70 193 2.0 12.0 0.00 0.00 0.00 59 1025.8
20260905151005 70 190 4.0 12.0 0.00 0.00 0.00 59 1025.7
20260905150005 70 234 3.0 12.0 0.00 0.00 0.00 58 1025.7
20260905145005 70 189 3.0 10.0 0.00 0.00 0.00 58 1025.6
20260905144005 70 245 3.0 12.0 0.00 0.00 0.00 58 1025.7
20260905143005 70 156 3.0 9.0 0.00 0.00 0.00 59 1025.5
20260905140005 70 198 3.0 12.0 0.00 0.00 0.00 57 1025.8
20260905134005 70 229 3.0 12.0 0.00 0.00 0.00 58 1025.6
20260905133005 70 209 5.0 12.0 0.00 0.00 0.00 57 1025.5
20260905132005 71 202 3.0 12.0 0.00 0.00 0.00 56 1025.5
20260905131004 71 190 2.0 9.0 0.00 0.00 0.00 57 1025.5
20260905130004 72 212 2.0 10.0 0.00 0.00 0.00 54 1025.4